Location: *
(45.0500°N, 12.0500°E)
Time: 01:34:21
(UTC+00:00)

CZ-4C R/B - Pass Details

Date: 09 April 2020
Orbit: 637 x 1365 km, 63.4° (Epoch: 03 June)

Event Time Altitude Azimuth Distance (km) Brightness Sun altitude
Rises 20:50:54 0° 323° (NW) 3,778 6.8 -28.1°
Reaches altitude 10° 20:53:24 10° 327° (NNW) 2,923 5.9 -28.4°
Maximum altitude 21:00:27 61° 47° (NE) 1,364 3.1 -29.1°
Enters shadow 21:01:48 54° 87° (E) 1,479 3.1 -29.3°
